Wind_Speed
48 48 48 49 50 50 51 51 51 51 51 51 52 52 52 52 52 52 52 51 50 50 49 48 47 47 47 47 47 47 46 45 44 43 42 42 41 40 40 41 41 40 40
45 46 46 47 47 49 49 50 51 51 51 51 51 52 51 51 51 51 51 50 49 48 48 48 48 48 47 46 46 46 45 44 43 41 41 40 40 40 40 41 40 40 40
44 45 45 45 46 47 47 48 49 50 50 50 50 50 51 51 51 50 49 48 48 48 48 48 47 47 46 45 45 44 43 42 41 40 39 39 39 40 40 40 40 40 40
42 43 43 44 44 45 45 45 46 46 47 48 48 48 48 48 48 48 47 47 47 47 46 45 45 44 44 43 43 42 41 40 39 39 39 39 39 39 39 39 40 40 40
40 41 42 42 43 43 43 43 43 44 44 45 45 45 45 45 45 45 45 45 45 44 44 43 43 42 42 41 40 39 39 38 38 38 39 38 39 39 39 39 39 40 40
39 39 40 40 41 42 42 42 42 42 42 43 43 43 43 43 43 43 43 43 43 43 42 42 41 40 40 39 38 38 38 38 38 38 38 38 39 39 39 39 39 40 40
37 38 38 39 39 39 40 40 40 41 41 41 41 41 41 41 41 42 42 42 42 41 41 40 39 39 38 38 37 37 37 37 38 38 38 38 38 38 39 39 40 40 41
36 37 37 38 38 39 39 39 39 39 39 39 39 39 39 40 40 40 40 40 40 39 38 38 37 37 37 36 36 36 36 37 37 37 38 38 38 39 39 39 40 41 41
35 35 36 36 36 37 37 37 37 37 37 38 38 37 37 38 38 38 38 37 37 36 36 36 36 36 35 35 35 35 36 37 37 37 38 38 38 39 39 40 40 41 41
32 33 33 34 34 34 35 35 35 35 35 36 36 35 35 35 35 35 35 35 34 35 35 35 34 34 34 34 34 35 36 36 36 37 37 38 38 39 40 41 41 42 42
30 30 31 32 32 32 32 32 32 33 33 33 33 32 33 32 33 33 33 33 33 33 33 33 33 33 33 34 35 35 35 36 36 37 37 38 39 40 40 41 42 42 43
28 29 29 29 29 29 29 30 30 30 30 30 30 31 31 31 31 32 32 32 32 32 32 32 32 33 33 34 34 34 35 35 36 37 37 38 39 40 41 41 42 43 44
26 27 27 27 28 28 28 28 28 29 29 29 29 29 30 30 30 31 31 31 31 31 31 32 32 33 33 34 34 34 35 35 36 37 38 39 40 41 42 42 42 43 44
26 26 26 26 26 26 27 27 27 28 28 29 29 29 29 30 30 30 30 31 31 31 32 32 32 33 33 33 34 35 35 36 37 38 39 40 41 41 42 42 43 44 45
26 26 26 26 26 26 26 27 27 27 28 28 28 29 29 29 29 29 30 30 31 31 31 32 32 32 33 34 34 35 36 37 38 39 40 41 41 42 43 43 44 45 45
25 25 26 26 26 26 26 26 27 27 28 28 28 29 28 28 28 29 29 29 30 30 31 31 32 33 33 34 35 36 37 38 39 40 41 42 42 43 44 44 45 45 45
25 25 25 26 26 26 26 26 27 27 27 28 28 28 28 28 29 29 29 30 30 30 31 32 32 33 34 35 36 37 38 39 40 41 42 43 43 44 44 45 45 45 45
25 25 25 26 26 26 27 27 27 27 27 27 28 28 29 29 29 29 29 30 30 31 31 32 32 33 34 35 37 38 39 40 41 42 43 43 44 44 45 45 45 45 45
26 27 27 27 26 27 27 27 27 27 28 28 28 28 28 29 29 30 30 31 31 32 32 33 33 34 36 37 38 39 40 41 42 43 44 44 45 45 45 45 45 45 45
27 27 28 28 28 28 28 28 28 28 29 29 29 29 30 30 30 31 31 31 32 33 33 34 35 36 37 38 39 40 42 43 43 44 44 45 45 45 45 45 45 45 46
28 28 28 28 29 29 29 29 29 29 30 30 30 31 32 32 32 32 33 33 33 34 34 35 37 38 39 39 40 42 42 43 44 44 45 45 45 46 46 46 46 46 46
28 28 28 28 29 29 29 30 30 31 31 31 31 32 33 33 33 34 34 35 35 36 36 38 39 40 40 41 42 42 43 44 44 45 45 45 46 46 46 46 46 47 47
27 27 27 28 28 29 29 29 30 31 31 32 32 33 33 34 34 35 36 36 37 37 38 39 40 41 41 42 43 44 44 45 45 46 46 47 47 47 47 47 47 47 47
27 27 27 28 28 29 29 30 30 30 31 32 32 33 33 34 35 35 36 37 38 38 39 40 41 41 42 43 44 44 45 46 46 47 47 47 46 46 47 47 47 47 47
27 27 27 28 28 28 29 30 30 31 31 32 32 33 34 34 35 36 36 37 38 38 39 40 41 41 42 43 44 45 46 46 47 47 47 46 46 46 46 46 46 47 47
27 27 27 27 28 28 29 29 30 30 31 31 31 32 33 33 34 35 36 37 38 39 40 40 41 42 43 44 45 45 46 47 47 47 47 46 46 46 46 46 46 47 47
Wind_Direction
252 254 255 256 257 258 259 260 261 261 262 263 265 266 267 268 270 270 271 273 274 276 277 278 280 281 282 283 284 284 285 286 287 287 287 288 288 289 290 291 292 292 291
252 254 256 257 258 259 260 261 261 263 264 265 266 267 267 268 270 271 272 273 275 276 276 278 279 281 281 282 283 283 284 285 286 286 287 287 288 289 290 291 292 292 292
252 254 256 258 259 260 261 262 263 264 265 265 266 267 268 268 269 271 271 273 274 275 276 277 279 279 280 281 282 283 283 284 285 285 286 287 288 289 291 292 292 293 293
254 256 257 258 259 261 262 263 264 265 266 266 267 267 268 269 269 270 271 271 272 275 276 277 278 279 280 281 281 281 282 283 284 285 286 288 288 289 291 292 293 293 293
256 257 258 259 260 261 263 264 265 266 266 266 267 267 268 268 269 269 270 271 272 273 275 277 278 279 279 279 280 280 281 283 284 285 287 288 289 290 291 292 293 294 294
256 258 259 260 260 261 262 264 265 265 266 266 266 267 267 267 268 268 269 270 272 274 275 276 277 277 278 278 279 280 281 283 284 286 287 288 289 290 291 292 294 294 295
257 258 259 260 261 261 262 263 264 265 265 265 266 266 267 267 268 268 269 270 271 273 274 274 275 276 277 277 278 280 281 283 285 286 287 288 290 290 292 293 294 295 295
258 259 260 261 261 261 262 263 264 264 264 265 266 266 266 267 268 268 269 270 270 271 271 273 274 275 276 277 279 280 282 284 286 286 287 289 290 291 292 294 295 295 296
259 260 260 260 261 261 262 263 264 264 264 265 265 266 268 268 268 268 268 268 268 269 271 272 273 274 276 277 279 281 283 285 285 287 288 290 291 292 293 295 295 295 296
260 260 260 260 261 261 262 263 263 264 264 265 265 266 267 268 268 267 267 267 267 269 271 272 273 274 276 278 280 283 284 286 287 288 289 290 291 292 294 296 296 296 297
260 261 261 260 261 262 262 262 262 263 263 264 265 266 266 267 267 267 267 268 269 270 271 272 273 275 277 279 281 283 285 287 288 289 290 292 293 294 295 297 297 298 298
260 260 260 260 260 261 261 261 261 262 263 263 264 265 266 266 266 267 267 268 270 271 271 272 274 276 278 280 282 284 286 288 289 290 292 293 294 296 297 298 299 299 300
260 260 260 260 261 261 261 261 261 261 261 263 264 266 266 266 266 267 268 268 270 271 272 273 275 278 279 281 283 285 287 289 291 292 293 295 296 297 298 299 300 301 301
260 260 260 260 261 262 261 261 262 262 263 264 266 267 267 267 267 267 268 269 270 271 273 275 277 278 280 282 284 286 288 290 292 294 295 296 297 298 298 299 301 302 302
259 259 260 261 262 263 262 262 263 264 265 265 266 267 267 268 268 268 269 270 272 273 275 277 278 280 281 284 286 287 289 291 293 295 296 297 298 298 299 300 301 303 303
261 262 262 261 262 263 263 264 264 265 266 266 267 268 268 268 268 269 270 272 273 275 277 278 279 281 283 285 287 289 291 292 294 296 296 297 298 299 299 300 302 303 303
263 264 264 263 262 263 264 265 266 267 267 267 267 267 267 268 269 270 272 274 275 277 278 280 281 283 285 287 288 290 292 294 295 296 297 297 298 299 300 300 301 302 303
262 264 265 265 264 264 265 266 266 266 267 268 269 268 267 268 269 270 272 275 277 279 280 281 283 285 286 288 289 291 293 294 295 296 297 297 298 299 300 300 301 301 302
263 264 265 265 265 265 265 266 266 267 267 268 269 269 269 269 270 272 274 276 278 279 280 282 284 286 288 289 291 292 294 295 296 297 297 297 298 299 300 300 300 301 302
264 264 265 265 265 266 266 266 267 267 267 268 268 268 269 270 272 274 275 277 279 280 282 283 285 287 289 290 292 293 295 296 297 297 297 298 298 299 299 299 299 301 302
265 265 266 266 266 266 267 267 267 267 268 269 269 269 269 271 272 274 275 277 279 281 283 285 286 288 289 291 292 294 295 296 297 297 298 298 298 299 299 299 300 301 302
266 267 268 268 268 268 268 268 268 268 268 269 270 270 271 272 273 274 276 278 279 281 283 286 288 288 290 291 293 294 295 296 297 297 297 297 298 298 298 299 300 300 301
267 267 268 269 269 269 269 269 270 270 270 270 271 272 273 274 275 276 277 278 280 282 285 287 288 289 290 291 293 294 295 296 296 297 297 297 298 298 298 299 300 300 301
267 268 269 270 271 271 270 270 271 271 272 272 272 273 274 275 276 277 278 279 281 283 285 287 288 289 291 292 294 294 295 296 297 297 297 297 297 297 298 299 299 300 301
268 269 270 271 272 272 272 272 272 273 273 274 274 275 275 276 277 278 279 281 283 284 286 288 289 290 291 293 294 295 296 297 297 298 298 297 297 297 298 298 299 300 301
269 270 271 271 272 273 274 274 274 274 275 275 276 276 277 278 279 280 282 283 285 286 287 289 290 291 292 294 295 296 297 297 298 298 298 297 297 298 298 298 299 300 300
Height
5721 5722 5724 5726 5727 5729 5730 5731 5733 5734 5735 5735 5736 5737 5737 5737 5737 5737 5737 5736 5735 5734 5733 5732 5731 5729 5727 5724 5722 5719 5717 5714 5711 5709 5706 5702 5699 5696 5693 5690 5687 5683 5680
5710 5712 5714 5716 5717 5718 5719 5720 5721 5722 5723 5724 5725 5725 5725 5726 5725 5725 5725 5724 5724 5723 5722 5721 5719 5717 5716 5713 5711 5708 5706 5703 5701 5698 5695 5692 5689 5686 5683 5680 5676 5673 5670
5700 5702 5704 5705 5706 5707 5708 5709 5710 5711 5712 5712 5713 5713 5714 5714 5714 5714 5714 5713 5712 5711 5710 5709 5708 5706 5704 5702 5700 5697 5695 5692 5690 5688 5685 5682 5679 5676 5673 5670 5666 5662 5659
5690 5692 5693 5694 5696 5696 5697 5698 5699 5699 5700 5700 5701 5701 5702 5702 5702 5702 5702 5702 5701 5700 5699 5698 5696 5695 5693 5691 5689 5686 5684 5682 5680 5677 5675 5672 5669 5666 5662 5659 5656 5652 5648
5680 5681 5683 5684 5685 5686 5686 5687 5688 5688 5689 5689 5689 5690 5690 5690 5690 5690 5690 5690 5689 5689 5688 5687 5685 5684 5682 5680 5678 5676 5674 5672 5669 5667 5665 5662 5659 5655 5652 5649 5645 5642 5638
5670 5671 5672 5673 5674 5675 5676 5676 5677 5677 5677 5678 5678 5678 5679 5679 5679 5679 5679 5679 5678 5678 5677 5675 5674 5673 5671 5669 5668 5666 5664 5662 5659 5657 5654 5651 5648 5645 5642 5638 5635 5631 5627
5660 5661 5662 5663 5664 5664 5665 5666 5666 5666 5667 5667 5667 5667 5668 5668 5668 5668 5668 5668 5667 5667 5666 5665 5664 5662 5661 5659 5658 5656 5654 5651 5649 5647 5644 5641 5638 5635 5631 5628 5624 5620 5616
5651 5651 5652 5653 5654 5654 5655 5655 5656 5656 5656 5657 5657 5657 5657 5657 5657 5657 5657 5657 5656 5656 5655 5654 5653 5652 5651 5649 5648 5646 5644 5641 5639 5636 5634 5631 5627 5624 5620 5617 5612 5608 5604
5641 5642 5642 5643 5644 5644 5645 5645 5646 5646 5646 5646 5647 5647 5647 5647 5647 5647 5647 5646 5646 5646 5645 5644 5643 5642 5641 5639 5638 5636 5634 5631 5629 5626 5623 5620 5617 5613 5609 5606 5601 5597 5593
5632 5633 5633 5634 5634 5635 5635 5636 5636 5636 5636 5637 5637 5637 5637 5637 5637 5637 5637 5636 5636 5636 5635 5635 5634 5632 5631 5629 5628 5626 5624 5621 5619 5616 5613 5610 5606 5602 5598 5594 5590 5586 5581
5623 5624 5624 5625 5625 5626 5626 5626 5627 5627 5627 5628 5628 5628 5628 5628 5628 5628 5627 5627 5627 5626 5626 5625 5624 5623 5622 5620 5618 5616 5614 5611 5608 5606 5602 5599 5595 5591 5587 5583 5578 5574 5569
5615 5616 5616 5617 5617 5617 5617 5618 5618 5618 5619 5619 5619 5619 5619 5619 5619 5619 5618 5618 5618 5617 5617 5616 5615 5614 5612 5610 5608 5606 5604 5601 5598 5595 5592 5588 5584 5580 5576 5571 5566 5561 5556
5608 5608 5608 5609 5609 5609 5609 5610 5610 5610 5611 5611 5611 5611 5611 5610 5610 5610 5610 5609 5609 5608 5608 5607 5606 5604 5603 5601 5599 5596 5594 5591 5588 5585 5581 5577 5573 5569 5564 5560 5555 5549 5544
5601 5601 5601 5601 5601 5602 5602 5602 5602 5602 5602 5603 5603 5603 5602 5602 5601 5601 5601 5600 5600 5599 5598 5597 5596 5595 5593 5591 5589 5587 5584 5581 5578 5574 5570 5566 5562 5557 5553 5548 5543 5537 5532
5593 5593 5594 5594 5594 5594 5594 5594 5594 5595 5594 5595 5594 5594 5594 5593 5593 5593 5592 5592 5591 5590 5589 5588 5587 5585 5584 5582 5579 5577 5574 5570 5567 5563 5559 5555 5550 5546 5541 5536 5531 5525 5520
5586 5586 5586 5586 5586 5586 5586 5587 5586 5586 5586 5586 5586 5586 5585 5585 5585 5584 5584 5583 5582 5581 5580 5579 5577 5576 5574 5572 5569 5566 5563 5560 5556 5552 5548 5543 5539 5534 5529 5524 5519 5513 5507
5579 5579 5579 5578 5578 5579 5579 5579 5579 5579 5578 5578 5577 5577 5577 5577 5576 5576 5575 5574 5573 5572 5571 5570 5568 5566 5564 5561 5559 5556 5552 5549 5545 5541 5536 5532 5527 5522 5517 5512 5506 5501 5495
5571 5571 5571 5571 5571 5571 5571 5571 5571 5570 5570 5570 5569 5569 5568 5568 5568 5567 5566 5565 5564 5563 5562 5560 5558 5556 5554 5551 5548 5545 5541 5537 5533 5529 5524 5519 5515 5510 5504 5499 5494 5488 5483
5563 5563 5563 5563 5563 5563 5563 5562 5562 5562 5562 5561 5561 5560 5560 5559 5559 5558 5557 5556 5555 5554 5552 5550 5548 5546 5543 5540 5537 5533 5530 5525 5521 5517 5512 5507 5502 5497 5492 5486 5481 5476 5470
5555 5555 5555 5555 5554 5554 5554 5554 5554 5553 5553 5553 5553 5552 5551 5551 5550 5549 5548 5547 5545 5544 5542 5540 5538 5535 5532 5529 5525 5522 5518 5513 5509 5504 5499 5494 5489 5484 5479 5473 5468 5463 5457
5546 5546 5546 5546 5546 5545 5545 5545 5545 5544 5544 5544 5543 5543 5542 5541 5541 5540 5539 5537 5536 5534 5532 5529 5527 5524 5521 5517 5514 5510 5506 5501 5496 5492 5487 5481 5476 5471 5466 5460 5455 5450 5444
5537 5537 5537 5537 5536 5536 5536 5535 5535 5535 5535 5534 5534 5533 5532 5531 5530 5530 5528 5527 5525 5523 5521 5518 5515 5512 5509 5505 5502 5498 5493 5488 5484 5479 5474 5468 5463 5458 5453 5447 5442 5437 5431
5528 5528 5528 5528 5527 5527 5526 5526 5526 5525 5525 5524 5523 5523 5522 5521 5520 5519 5517 5516 5514 5512 5509 5507 5504 5500 5497 5493 5489 5485 5480 5476 5471 5466 5461 5455 5450 5444 5439 5434 5428 5423 5417
5520 5519 5519 5519 5518 5517 5517 5517 5516 5516 5515 5514 5513 5513 5512 5510 5509 5508 5506 5505 5503 5500 5498 5495 5491 5488 5484 5480 5476 5472 5467 5462 5457 5452 5447 5442 5436 5431 5425 5420 5415 5409 5403
5511 5511 5510 5510 5509 5508 5508 5507 5506 5506 5505 5504 5503 5502 5501 5500 5498 5497 5495 5493 5491 5488 5485 5482 5479 5475 5471 5467 5463 5458 5454 5448 5443 5438 5433 5428 5422 5417 5412 5406 5401 5395 5389
5502 5502 5501 5501 5500 5499 5499 5498 5497 5496 5495 5494 5493 5492 5490 5489 5487 5485 5483 5481 5478 5476 5473 5470 5466 5462 5458 5454 5450 5445 5440 5434 5429 5424 5419 5414 5408 5403 5397 5392 5387 5381 5376